Location: Austin
(30.3000°N, 97.7500°W)
Time: 00:52:00
(UTC-06:00)

ARIANE 6 FM1 Upper Stage - Pass Details

Date: 04 November 2025
Orbit: 522 x 612 km, 62.0° (Epoch: 15 November)

Event Time Altitude Azimuth Distance (km) Brightness Sun altitude
Rises 18:01:03 0° 210° (SSW) 2,712 6.9 -5.0°
Reaches altitude 10° 18:03:16 10° 211° (SSW) 1,807 6.0 -5.5°
Maximum altitude 18:07:20 87° 301° (WNW) 541 2.6 -6.3°
Drops below altitude 10° 18:11:19 10° 30° (NNE) 1,775 4.8 -7.2°
Enters shadow 18:13:19 - 31° (NNE) 2,586 5.6 -7.6°
